Location: 22
(39.7117°N, 89.5929°W)
Time: 19:24:56
(UTC-05:00)

Vanguard 3 - Pass Details

Date: 04 February 2023
Orbit: 508 x 3249 km, 33.4° (Epoch: 30 March)

Event Time Altitude Azimuth Distance (km) Brightness Sun altitude
Rises 23:48:40 0° 279° (W) 5,811 11.6 -66.0°
Enters shadow 23:52:14 10° 273° (W) 5,117 11.2 -66.2°
Reaches altitude 10° 23:52:14 10° 273° (W) 5,116 - -66.2°
Maximum altitude 00:07:15 47° 207° (SSW) 3,785 - -66.6°
Drops below altitude 10° 00:25:27 10° 142° (SE) 6,079 - -66.4°
Sets 00:30:13 0° 137° (SE) 6,937 - -66.2°
